www.pogodaiklimat.ru

Погода и климат >> Архив погоды >> Россия >> Мордовия >> Краснослободск


ПОГОДА в Краснослободске

  • Прогноз погоды в Краснослободске
  • Монитор погоды в Краснослободске

АРХИВ ПОГОДЫ в Краснослободске

Время (UTC), дата Ветер
(напр.,м/с)
 
Видим.   Явления Облачность Т
(С)
Тd
(С)
f
(%)
Тe
(С)
Тes
(С)
Комфортность P
(гПа)
Po
(гПа)
Тmin
(С)
Tmax
(С)
R
(мм)
R24
(мм)
S
(см)
18 15.01 Ю 4-6
{6}
10 км {снег, метель} 10/0
[As op]
-0.7 -2.9 85 -6 -6 1001.3 978.0
21 15.01 Ю 2-4
{4}
10 км 10/0
[As op]
-3.2 -5.6 83 -7 -7 1002.0 978.4
00 16.01 Ю 2-4
{4}
10 км слаб. снег 10/10 300 м
[Frnb Ns]
-3.0 -4.7 88 -7 -7 1001.8 978.2
03 16.01 штиль 0 10 км слаб. снег 10/10 300 м
[Frnb Ns]
-3.0 -3.7 95 -4 -4 1000.3 976.9 -3.6 0.0 36
06 16.01 С 2-2
{2}
10 км слаб. снег 10/10 300 м
[Frnb Ns]
-3.3 -4.4 92 -8 -8 998.8 975.4
09 16.01 С 2-2
{2}
10 км слаб. снег 10/10 300 м
[Frnb Ns]
-4.0 -5.2 91 -8 -8 997.6 974.1
12 16.01 С 2-4
{4}
10 км слаб. снег 10/10 300 м
[Frnb Ns]
-4.1 -5.0 93 -8 -8 996.0 972.5
15 16.01 С 2-4
{4}
10 км слаб. снег 10/10 300 м
[Frnb Ns]
-5.0 -6.0 93 -9 -9 997.5 973.9 -2.8 5
18 16.01 З 2-4
{4}
10 км слаб. снег 10/10 300 м
[Frnb Ns]
-5.4 -6.8 90 -10 -10 1000.2 976.6
21 16.01 З 2-4
{4}
10 км слаб. снег 10/10 300 м
[Frnb Ns]
-8.5 -10.4 86 -13 -13 1003.1 979.1
00 17.01 З 2-4
{4}
10 км слаб. снег 10/10 300 м
[Frnb Ns]
-9.3 -10.5 91 -14 -14 1006.0 981.9
03 17.01 З 4-6
{6}
10 км позёмок 10/0
[As op]
-7.9 -9.7 87 -15 -15 1007.8 983.7 -10.3 2 42
06 17.01 З 4-6
{6}
10 км {метель} 10/10 1000 м
[Sc]
-7.8 -9.6 87 -15 -15 1009.2 985.1
09 17.01 З 4-6
{6}
20 км {снег} 10/10 1000 м
[Sc]
-7.1 -9.2 85 -14 -14 1010.2 986.2
12 17.01 ЮЗ 4-6
{6}
20 км {снег} 10/0
[As op]
-5.8 -7.6 87 -12 -12 1009.7 985.8
15 17.01 З 6-10
{10}
10 км позёмок 10/0
[As op]
-6.3 -8.6 84 -14 -14 1010.1 986.2 -5.5 1
18 17.01 Ю 8-10
{10}
10 км позёмок 10/0
[As op]
-6.7 -9.1 83 -16 -16 1008.9 985.0
21 17.01 Ю 8-10
{10}
10 км позёмок 10/0
[As op]
-6.5 -8.5 86 -16 -16 1007.4 983.5
00 18.01 Ю 8-12
{12}
10 км метель 10/0
[As op]
-5.9 -8.5 82 -15 -15 1005.0 981.2
03 18.01 ЮЗ 10-12
{12}
10 км метель 10/10 1000 м
[Sc]
-5.3 -7.4 85 -15 -15 1004.4 980.7 -6.8 38
06 18.01 Ю 10-12
{12}
10 км метель 10/10 300 м
[St]
-4.1 -5.7 89 -14 -14 1005.9 982.3
09 18.01 Ю 6-10
{10}
20 км метель 10/10 300 м
[St]
-2.8 -4.8 86 -10 -10 1006.9 983.3
12 18.01 Ю 6-8
{8}
20 км {метель} 10/10 300 м
[St]
-2.0 -3.8 87 -9 -9 1008.2 984.6
15 18.01 Ю 6-8
{8}
10 км 10/0
[Ac trans]
-1.6 -3.3 88 -9 -9 1009.0 985.5 -1.3
18 18.01 Ю 6-8
{8}
10 км 10/10 600 м
[Sc]
-1.2 -2.5 91 -8 -8 1008.1 984.6
21 18.01 ЮЗ 4-6
{6}
10 км 10/10 600 м
[Sc]
-0.8 -2.1 91 -7 -7 1006.8 983.4
00 19.01 Ю 6-8
{8}
10 км 10/10 600 м
[Sc]
-0.2 -1.4 92 -7 -7 1006.1 982.7
03 19.01 ЮЗ 4-4
{4}
10 км слаб. снег 10/10 300 м
[Frnb Ns]
+0.1 -1.0 92 -5 -5 1005.9 982.6 -1.6 0.3 37
06 19.01 З 4-4
{4}
10 км {снег} 10/10 300 м
[St]
+0.4 -1.5 87 -5 -5 1006.4 983.1
09 19.01 З 4-4
{4}
10 км слаб. снег 10/10 300 м
[Frnb Ns]
-1.5 -5.2 76 -7 -7 1008.2 984.7
12 19.01 З 4-4
{4}
10 км {снег} 8/0
[As op]
-3.6 -7.6 74 -10 -9 1009.9 986.2
15 19.01 З 4-4
{4}
10 км 3/0
[Ci fib]
-8.2 -11.4 78 -15 -15 1011.4 987.3 +0.7 0.0
18 19.01 З 2-4
{4}
10 км ясно -7.8 -10.9 78 -12 -12 1012.6 988.4
21 19.01 ЮЗ 4-4
{4}
10 км ясно -9.5 -12.1 81 -16 -16 1013.6 989.3
00 20.01 З 2-2
{2}
10 км 3/0
[Cc]
-11.2 -13.2 85 -16 -16 1014.6 990.1
03 20.01 З 4-6
{6}
10 км ясно -9.7 -12.8 78 -17 -17 1016.0 991.6 -11.3 37
06 20.01 З 4-6
{6}
20 км ясно -11.3 -13.3 85 -18 -18 1018.1 993.5 -11.6
09 20.01 Ю 4-6
{6}
20 км 10/10 1000 м
[Sc]
-10.1 -12.9 80 -17 -17 1018.5 993.9
12 20.01 Ю 2-4
{4}
20 км ясно -7.5 -11.5 73 -12 -11 1017.3 993.0
15 20.01 Ю 2-4
{4}
10 км ясно -8.6 -11.9 77 -13 -13 1017.0 992.6 -7.2
18 20.01 Ю 2-2
{2}
10 км 10/0
[Ci fib]
-8.8 -12.2 76 -13 -13 1015.2 990.9
21 20.01 ЮЗ 4-6
{6}
10 км 10/0
[Ci fib]
-8.4 -11.2 80 -15 -15 1015.0 990.8
00 21.01 ЮЗ 2-4
{4}
10 км 10/10 1000 м
[Sc]
-7.5 -10.1 82 -12 -12 1013.9 989.7
03 21.01 ЮЗ 2-4
{4}
10 км 10/10 1000 м
[Sc]
-8.3 -10.6 83 -13 -13 1013.0 988.8 -8.9 37
06 21.01 З 4-6
{6}
10 км слаб. снег 10/10 300 м
[Frnb Ns]
-9.5 -11.1 88 -16 -16 1013.2 988.9 -9.7
09 21.01 ЮЗ 4-6
{6}
4000 м слаб. снег 10/10 300 м
[Frnb Ns]
-9.4 -11.5 85 -16 -16 1012.5 988.2
12 21.01 ЮЗ 2-4
{4}
4000 м слаб. снег 10/10 300 м
[Frnb Ns]
-8.6 -10.1 89 -13 -13 1010.1 985.9
15 21.01 ЮЗ 2-4
{4}
10 км слаб. снег 10/10 300 м
[Frnb Ns]
-9.1 -10.6 89 -14 -14 1009.5 985.3 -8.1 1
18 21.01 ЮЗ 2-4
{4}
10 км {снег} 10/0
[As op]
-9.4 -11.0 88 -14 -14 1009.6 985.4
21 21.01 З 4-6
{6}
10 км {снег} 10/0
[Ci fib]
-9.7 -11.4 87 -17 -17 1009.8 985.6
00 22.01 З 4-6
{6}
10 км 4/0
[Ci fib]
-12.6 -14.6 85 -20 -20 1011.5 987.0
03 22.01 З 4-6
{6}
10 км 8/0
[Ci fib]
-15.4 -18.1 80 -23 -23 1012.9 988.0 -15.5 0.0
06 22.01 З 4-4
{4}
20 км 4/0
[Ci fib]
-16.1 -18.0 85 -24 -24 1014.6 989.6 -17.0
09 22.01 З 2-4
{4}
20 км ясно -14.5 -17.2 80 -19 -18 1015.8 991.0
12 22.01 З 2-2
{2}
20 км 6/0
[Cs]
-14.6 -17.3 80 -20 -19 1016.7 991.9

 

Местоположение метеостанции Краснослободск (Мордовия, Россия): широта 54.43 долгота 43.77 высота над уровнем моря 188 м.

В архиве по умолчанию представлена погода в Краснослободске за последнюю неделю. Архивные данные за месяц целиком и за предыдущие месяцы, начиная с января 2011 года, Вы можете получить, выбрав интересующий диапазон дат из раскрывающегося списка и нажав кнопку "Ввод!".


*Определитесь, кто Вы:
робот инопланетянин человек

Внимание! Время в таблицах - всемирное. Для получения местного времени необходимо прибавить поправку, которая равна 3 ч.

Смотрите также архив погоды в соседних городах и на ближайших метеорологических станциях:

Погода в Темникове (Мордовия, Россия) (41 км)
Погода в Торбеево (Мордовия, Россия) (52 км)
Погода в Инсаре (Мордовия, Россия) (74 км)
Погода в Лукоянове (Нижегородская область, Россия) (82 км)
Погода в Саранске (Мордовия, Россия) (102 км)
Погода в Арзамасе (Нижегородская область, Россия) (105 км)
Погода в Сасово (Рязанская область, Россия) (116 км)
Погода в Большом Болдино (Нижегородская область, Россия) (119 км)
Погода в Пачелме (Пензенская область, Россия) (126 км)
Погода в Земетчино (Пензенская область, Россия) (129 км)

Пояснения к столбцам:

Ветер - указаны скорость ветра в м/с - средняя за 10 мин, порывы в срок и между сроками (в фигурных скобках) и направление, откуда дует ветер: С - северный, СВ - северо-восточный, В - восточный, ЮВ - юго-восточный, Ю - южный, ЮЗ - юго-западный, З - западный, СЗ - северо-западный.
Видимость - горизонтальная дальность видимости в метрах или километрах. При видимости от 1 до 10 км при отсутствии осадков обычно наблюдается дымка, при ухудшении видимости до 1 км и менее - туман. В сухую погоду видимость может ухудшаться дымом, пылью или мглою.
Явления - указаны атмосферные явления, наблюдавшиеся в срок или в последний час перед сроком; фигурными скобками обозначены явления, наблюдавшиеся между сроками (за 1-3 часа до срока); квадратными скобками обозначены град или гололедные отложения с указанием их диаметра в мм.
Облачность - указаны через наклонную черту общая и нижняя облачность в баллах и высота нижней границы облаков в метрах; квадратными скобками обозначены формы облаков: Ci - перистые, Cs - перисто-слоистые, Cc - перисто-кучевые, Ac - высококучевые, As - высокослоистые, Sc - слоисто-кучевые, Ns - слоисто-дождевые, Cu - кучевые, Cb - кучево-дождевые. Подробнее классификацию облаков см. в Атласе облаков (PDF).
T - Температура воздуха - температура, измеренная на высоте 2 м над землей.
Td - Температура точки росы - температура, при понижении до которой содержащийся в воздухе водяной пар достигнет насыщения.
f - Относительная влажность воздуха - влажноcть воздуха, измеренная на высоте 2 м над землей.
Te - Эффективная температура - температура, которую ощущает одетый по сезону человек в тени. Характеристика душности погоды. При расчете учитывается влияние влажности воздуха и скорости ветра на теплоощущения человека.
Tes - Эффективная температура на солнце - температура, которую ощущает человек, с поправкой на солнечный нагрев. Характеристика знойности погоды. Зависит от высоты солнца над горизонтом, облачности и скорости ветра. Ночью, в пасмурную погоду, а также при ветре 12 м/с и более поправка равна нулю.
P - Атмосферное давление - приведенное к уровню моря атмосферное давление.
Po - Атмосферное давление - измеренное на уровне метеостанции атмосферное давление.
Tmin - Минимальная температура - минимум температуры воздуха на высоте 2 м над землей.
Tmax - Максимальная температура - максимум температуры воздуха на высоте 2 м над землей.
R - Количество осадков - Количество выпавших осадков за период времени, мм. При наведении курсора мыши на число - период времени, за который выпало указанное количество осадков.
R24 - Количество осадков - Количество выпавших осадков за 24 часа, мм.
S - Снежный покров - Высота снежного покрова, см. При наведении курсора мыши на число - состояние снежного покрова и степень покрытия местности в баллах.